Precipitable_Water
0.26 0.20 0.18 0.19 0.22 0.23 0.25 0.24 0.22 0.20 0.18 0.17 0.16 0.15 0.14 0.13 0.14 0.16 0.16 0.18 0.20 0.16 0.15 0.15 0.15 0.13 0.14 0.15 0.16 0.16 0.16 0.15 0.15 0.14 0.14 0.14 0.14 0.14 0.15 0.14 0.15 0.17 0.20 0.24 0.31 0.38 0.45 0.56 0.71 0.82 0.96 0.94 0.95 1.01 1.14 1.22 1.33 1.45 1.55 1.64 1.69 1.73 1.66 1.52 1.40 1.37 1.37 1.32 1.30 1.28 1.22 1.18 1.25 1.28 1.30 1.29 1.27 1.24 1.20 1.16 1.13 1.08 1.06 1.09 1.15 1.18
0.25 0.19 0.21 0.24 0.26 0.26 0.26 0.26 0.25 0.23 0.21 0.19 0.17 0.16 0.15 0.15 0.14 0.18 0.18 0.21 0.22 0.17 0.16 0.18 0.15 0.14 0.14 0.16 0.16 0.17 0.16 0.15 0.15 0.14 0.14 0.14 0.14 0.14 0.15 0.15 0.15 0.16 0.20 0.22 0.26 0.35 0.43 0.53 0.65 0.77 0.89 0.97 0.97 0.97 1.05 1.11 1.24 1.32 1.47 1.64 1.76 1.72 1.70 1.60 1.50 1.41 1.39 1.39 1.39 1.34 1.34 1.32 1.31 1.32 1.31 1.27 1.27 1.26 1.26 1.24 1.18 1.12 1.08 1.11 1.16 1.18
0.22 0.19 0.25 0.28 0.29 0.30 0.29 0.27 0.26 0.24 0.21 0.21 0.20 0.19 0.18 0.19 0.21 0.22 0.22 0.25 0.26 0.23 0.19 0.21 0.17 0.15 0.16 0.17 0.18 0.17 0.16 0.16 0.16 0.15 0.15 0.14 0.14 0.14 0.15 0.15 0.15 0.15 0.16 0.19 0.21 0.25 0.33 0.43 0.55 0.64 0.80 0.92 1.02 1.00 0.99 1.08 1.19 1.28 1.34 1.41 1.55 1.66 1.71 1.58 1.48 1.42 1.34 1.40 1.47 1.45 1.47 1.41 1.34 1.42 1.43 1.42 1.39 1.37 1.32 1.29 1.23 1.17 1.12 1.11 1.16 1.19
0.19 0.24 0.29 0.32 0.32 0.30 0.29 0.30 0.29 0.27 0.25 0.24 0.24 0.23 0.21 0.24 0.22 0.19 0.24 0.27 0.29 0.26 0.22 0.22 0.19 0.17 0.18 0.18 0.18 0.19 0.18 0.17 0.16 0.16 0.15 0.15 0.15 0.15 0.15 0.15 0.15 0.16 0.16 0.17 0.19 0.21 0.26 0.37 0.47 0.58 0.67 0.77 0.94 1.07 1.11 1.15 1.16 1.28 1.29 1.28 1.40 1.53 1.59 1.50 1.39 1.33 1.39 1.48 1.54 1.57 1.59 1.57 1.47 1.39 1.43 1.45 1.46 1.43 1.39 1.31 1.27 1.21 1.16 1.14 1.15 1.18
0.23 0.29 0.37 0.37 0.35 0.33 0.29 0.31 0.30 0.27 0.25 0.28 0.28 0.27 0.26 0.26 0.28 0.26 0.26 0.30 0.31 0.32 0.30 0.25 0.20 0.17 0.18 0.18 0.19 0.22 0.22 0.19 0.18 0.16 0.15 0.16 0.16 0.17 0.17 0.17 0.17 0.16 0.16 0.17 0.17 0.19 0.22 0.27 0.38 0.49 0.60 0.71 0.79 1.00 1.11 1.11 1.13 1.23 1.31 1.39 1.40 1.48 1.53 1.46 1.40 1.37 1.34 1.38 1.45 1.53 1.57 1.62 1.54 1.49 1.44 1.40 1.41 1.42 1.38 1.34 1.27 1.18 1.19 1.18 1.18 1.20
0.29 0.35 0.38 0.35 0.34 0.33 0.31 0.29 0.30 0.29 0.24 0.27 0.30 0.30 0.30 0.30 0.29 0.30 0.31 0.29 0.26 0.24 0.28 0.26 0.18 0.14 0.18 0.20 0.20 0.22 0.23 0.21 0.20 0.17 0.16 0.16 0.17 0.17 0.17 0.17 0.18 0.18 0.19 0.17 0.17 0.18 0.20 0.23 0.31 0.50 0.61 0.74 0.79 0.88 1.09 1.18 1.17 1.18 1.32 1.40 1.43 1.38 1.40 1.37 1.34 1.36 1.36 1.35 1.31 1.35 1.38 1.42 1.41 1.31 1.30 1.27 1.29 1.30 1.29 1.25 1.27 1.25 1.22 1.21 1.25 1.26
0.31 0.36 0.36 0.32 0.32 0.31 0.31 0.30 0.32 0.32 0.27 0.25 0.28 0.34 0.33 0.32 0.32 0.31 0.30 0.28 0.22 0.20 0.28 0.31 0.21 0.14 0.18 0.20 0.21 0.23 0.22 0.21 0.21 0.19 0.19 0.19 0.19 0.18 0.18 0.19 0.19 0.19 0.18 0.18 0.18 0.18 0.18 0.20 0.24 0.34 0.51 0.66 0.78 0.94 1.09 1.21 1.28 1.33 1.38 1.35 1.34 1.35 1.30 1.32 1.35 1.34 1.33 1.31 1.32 1.32 1.32 1.38 1.40 1.34 1.32 1.34 1.34 1.35 1.37 1.37 1.30 1.25 1.27 1.28 1.28 1.29
0.32 0.31 0.33 0.33 0.31 0.29 0.28 0.28 0.33 0.34 0.29 0.25 0.36 0.36 0.36 0.34 0.32 0.31 0.30 0.28 0.25 0.29 0.29 0.28 0.25 0.19 0.14 0.19 0.23 0.24 0.22 0.22 0.23 0.22 0.21 0.20 0.19 0.19 0.19 0.20 0.20 0.19 0.19 0.19 0.18 0.18 0.19 0.20 0.21 0.23 0.35 0.54 0.67 0.81 1.02 1.17 1.29 1.29 1.29 1.29 1.28 1.25 1.27 1.25 1.37 1.39 1.32 1.25 1.24 1.29 1.31 1.37 1.43 1.45 1.35 1.39 1.36 1.42 1.44 1.39 1.32 1.29 1.29 1.35 1.37 1.36
0.30 0.28 0.30 0.29 0.31 0.30 0.29 0.33 0.37 0.37 0.31 0.31 0.37 0.38 0.35 0.35 0.33 0.32 0.30 0.28 0.28 0.26 0.21 0.24 0.26 0.19 0.15 0.20 0.24 0.24 0.22 0.23 0.23 0.23 0.21 0.21 0.22 0.23 0.23 0.23 0.23 0.22 0.21 0.20 0.18 0.17 0.18 0.19 0.20 0.22 0.25 0.39 0.56 0.78 0.86 0.96 1.14 1.21 1.21 1.21 1.20 1.21 1.15 1.18 1.29 1.32 1.30 1.24 1.21 1.20 1.24 1.26 1.37 1.49 1.51 1.52 1.52 1.48 1.49 1.42 1.37 1.31 1.29 1.35 1.40 1.40
0.33 0.33 0.35 0.36 0.33 0.30 0.35 0.38 0.39 0.38 0.32 0.38 0.41 0.41 0.40 0.39 0.36 0.34 0.31 0.29 0.28 0.24 0.19 0.23 0.25 0.18 0.15 0.21 0.22 0.24 0.22 0.23 0.23 0.24 0.23 0.25 0.26 0.26 0.25 0.26 0.25 0.25 0.24 0.23 0.21 0.19 0.19 0.19 0.20 0.22 0.25 0.29 0.44 0.58 0.75 0.84 0.97 1.09 1.17 1.16 1.06 1.07 1.13 1.10 1.16 1.21 1.25 1.26 1.24 1.19 1.21 1.24 1.25 1.43 1.51 1.52 1.46 1.45 1.44 1.36 1.35 1.32 1.30 1.31 1.36 1.39
0.35 0.42 0.45 0.39 0.36 0.38 0.40 0.42 0.42 0.42 0.41 0.45 0.42 0.38 0.37 0.35 0.34 0.34 0.31 0.29 0.26 0.20 0.21 0.26 0.26 0.23 0.16 0.19 0.20 0.21 0.23 0.24 0.24 0.25 0.27 0.28 0.28 0.28 0.28 0.27 0.26 0.25 0.24 0.23 0.23 0.21 0.20 0.21 0.21 0.22 0.22 0.24 0.28 0.43 0.58 0.75 0.87 0.95 1.07 1.15 1.07 0.95 1.01 1.08 1.09 1.12 1.19 1.25 1.24 1.25 1.28 1.28 1.27 1.32 1.41 1.40 1.38 1.40 1.42 1.32 1.29 1.27 1.26 1.31 1.32 1.37
0.36 0.38 0.38 0.41 0.48 0.46 0.46 0.41 0.46 0.46 0.46 0.43 0.37 0.35 0.32 0.30 0.32 0.29 0.27 0.28 0.20 0.18 0.23 0.26 0.24 0.24 0.16 0.17 0.21 0.25 0.28 0.28 0.27 0.27 0.28 0.28 0.29 0.29 0.29 0.29 0.28 0.27 0.26 0.24 0.23 0.22 0.21 0.21 0.22 0.23 0.22 0.23 0.25 0.29 0.41 0.56 0.72 0.83 0.96 1.09 1.06 0.96 0.97 1.03 1.07 1.08 1.15 1.21 1.24 1.30 1.31 1.30 1.32 1.35 1.35 1.35 1.31 1.33 1.32 1.22 1.16 1.21 1.27 1.28 1.32 1.35
0.30 0.33 0.41 0.44 0.52 0.46 0.42 0.39 0.40 0.42 0.42 0.39 0.36 0.33 0.26 0.22 0.23 0.19 0.23 0.18 0.19 0.18 0.24 0.27 0.27 0.22 0.19 0.22 0.25 0.28 0.30 0.32 0.33 0.33 0.32 0.31 0.30 0.30 0.30 0.30 0.30 0.30 0.29 0.28 0.26 0.24 0.22 0.21 0.21 0.23 0.24 0.24 0.25 0.25 0.30 0.41 0.56 0.70 0.83 0.99 1.08 1.05 1.00 1.04 1.10 1.11 1.16 1.22 1.25 1.29 1.32 1.34 1.38 1.37 1.35 1.34 1.33 1.35 1.34 1.32 1.20 1.15 1.15 1.21 1.24 1.27
0.28 0.37 0.40 0.42 0.45 0.47 0.44 0.32 0.31 0.31 0.36 0.36 0.32 0.30 0.24 0.19 0.18 0.16 0.18 0.21 0.21 0.24 0.29 0.28 0.30 0.21 0.24 0.27 0.31 0.30 0.34 0.37 0.37 0.37 0.36 0.34 0.33 0.33 0.32 0.32 0.32 0.32 0.32 0.31 0.30 0.29 0.27 0.26 0.24 0.25 0.26 0.26 0.26 0.27 0.29 0.36 0.47 0.59 0.72 0.88 1.04 1.05 1.04 1.06 1.14 1.13 1.14 1.19 1.21 1.25 1.29 1.33 1.37 1.36 1.37 1.33 1.32 1.34 1.35 1.37 1.34 1.18 1.08 1.12 1.14 1.20
0.21 0.25 0.34 0.39 0.33 0.47 0.43 0.40 0.38 0.36 0.37 0.35 0.40 0.34 0.29 0.27 0.21 0.17 0.20 0.17 0.19 0.21 0.26 0.32 0.25 0.22 0.20 0.24 0.32 0.36 0.38 0.40 0.38 0.36 0.36 0.36 0.36 0.35 0.35 0.34 0.34 0.32 0.32 0.34 0.32 0.31 0.30 0.29 0.27 0.26 0.27 0.27 0.27 0.29 0.31 0.36 0.43 0.52 0.62 0.77 0.97 1.06 1.03 1.03 1.12 1.19 1.14 1.16 1.21 1.21 1.22 1.24 1.30 1.36 1.40 1.37 1.35 1.34 1.34 1.36 1.36 1.32 1.19 1.14 1.16 1.22
0.28 0.29 0.38 0.46 0.45 0.47 0.41 0.46 0.47 0.40 0.38 0.40 0.40 0.40 0.33 0.30 0.36 0.23 0.26 0.25 0.24 0.23 0.22 0.26 0.25 0.28 0.26 0.34 0.38 0.40 0.38 0.35 0.35 0.35 0.36 0.35 0.36 0.36 0.35 0.35 0.35 0.34 0.33 0.34 0.34 0.34 0.32 0.32 0.30 0.27 0.27 0.28 0.29 0.30 0.34 0.38 0.44 0.50 0.53 0.62 0.79 1.01 1.13 1.11 1.13 1.23 1.24 1.21 1.24 1.23 1.21 1.22 1.27 1.32 1.38 1.41 1.40 1.38 1.39 1.38 1.37 1.33 1.25 1.19 1.23 1.32
0.32 0.27 0.40 0.45 0.48 0.45 0.45 0.47 0.45 0.44 0.25 0.35 0.38 0.30 0.35 0.45 0.39 0.30 0.29 0.30 0.29 0.26 0.21 0.29 0.27 0.30 0.35 0.33 0.37 0.36 0.33 0.34 0.36 0.35 0.35 0.36 0.38 0.38 0.36 0.36 0.37 0.38 0.37 0.35 0.35 0.35 0.34 0.33 0.32 0.30 0.28 0.28 0.29 0.29 0.32 0.38 0.47 0.53 0.52 0.56 0.63 0.86 1.07 1.15 1.17 1.18 1.25 1.28 1.29 1.32 1.32 1.31 1.30 1.29 1.32 1.35 1.36 1.34 1.36 1.39 1.37 1.35 1.32 1.30 1.30 1.34
0.30 0.29 0.41 0.40 0.38 0.46 0.50 0.49 0.48 0.47 0.45 0.38 0.30 0.35 0.46 0.50 0.43 0.32 0.21 0.24 0.22 0.18 0.20 0.25 0.22 0.24 0.26 0.21 0.35 0.33 0.32 0.32 0.33 0.35 0.37 0.38 0.38 0.36 0.36 0.36 0.37 0.37 0.39 0.39 0.37 0.37 0.35 0.34 0.32 0.32 0.31 0.30 0.29 0.30 0.31 0.35 0.46 0.57 0.63 0.60 0.61 0.69 0.89 1.03 1.12 1.17 1.20 1.18 1.19 1.25 1.39 1.48 1.48 1.43 1.37 1.39 1.38 1.36 1.37 1.39 1.41 1.38 1.35 1.33 1.32 1.37
0.42 0.29 0.35 0.42 0.42 0.45 0.50 0.47 0.43 0.48 0.49 0.38 0.36 0.48 0.31 0.24 0.23 0.32 0.27 0.17 0.16 0.15 0.18 0.22 0.25 0.25 0.26 0.25 0.31 0.31 0.33 0.35 0.35 0.36 0.37 0.37 0.38 0.38 0.39 0.39 0.41 0.41 0.40 0.40 0.38 0.37 0.35 0.34 0.32 0.32 0.31 0.31 0.31 0.31 0.32 0.34 0.42 0.54 0.61 0.67 0.65 0.65 0.77 0.91 1.09 1.18 1.27 1.29 1.23 1.23 1.21 1.36 1.39 1.49 1.58 1.55 1.46 1.38 1.33 1.33 1.39 1.38 1.36 1.37 1.40 1.40
0.43 0.29 0.31 0.43 0.42 0.44 0.45 0.42 0.30 0.35 0.44 0.46 0.46 0.38 0.43 0.37 0.29 0.25 0.26 0.26 0.25 0.17 0.18 0.18 0.22 0.20 0.28 0.30 0.33 0.34 0.38 0.39 0.39 0.38 0.37 0.38 0.40 0.41 0.41 0.42 0.43 0.44 0.42 0.42 0.41 0.39 0.38 0.37 0.35 0.34 0.33 0.32 0.31 0.32 0.32 0.34 0.39 0.48 0.57 0.62 0.65 0.67 0.79 0.94 1.04 1.16 1.24 1.28 1.30 1.29 1.28 1.21 1.29 1.45 1.63 1.66 1.56 1.47 1.38 1.35 1.36 1.39 1.39 1.40 1.41 1.43
0.37 0.41 0.26 0.35 0.44 0.43 0.32 0.38 0.34 0.37 0.33 0.33 0.33 0.31 0.34 0.34 0.39 0.35 0.33 0.27 0.23 0.20 0.20 0.19 0.17 0.22 0.31 0.38 0.38 0.40 0.42 0.43 0.44 0.43 0.43 0.43 0.42 0.44 0.44 0.44 0.45 0.47 0.46 0.44 0.44 0.41 0.39 0.38 0.37 0.36 0.35 0.35 0.34 0.35 0.35 0.34 0.38 0.47 0.59 0.62 0.64 0.63 0.70 0.79 0.91 1.04 1.15 1.24 1.26 1.29 1.27 1.23 1.22 1.34 1.43 1.56 1.65 1.56 1.52 1.45 1.40 1.38 1.40 1.44 1.44 1.46
0.36 0.36 0.29 0.34 0.33 0.32 0.35 0.44 0.44 0.43 0.43 0.37 0.35 0.32 0.35 0.30 0.26 0.22 0.20 0.34 0.30 0.25 0.21 0.19 0.17 0.25 0.35 0.44 0.44 0.44 0.46 0.48 0.49 0.48 0.47 0.47 0.46 0.45 0.45 0.45 0.45 0.46 0.48 0.47 0.47 0.44 0.41 0.39 0.38 0.38 0.37 0.36 0.34 0.33 0.33 0.34 0.37 0.48 0.57 0.61 0.60 0.62 0.66 0.72 0.80 0.89 1.00 1.14 1.20 1.27 1.28 1.23 1.19 1.25 1.34 1.46 1.53 1.51 1.47 1.50 1.45 1.42 1.40 1.39 1.46 1.49
0.44 0.39 0.34 0.29 0.31 0.33 0.39 0.46 0.50 0.50 0.49 0.46 0.42 0.36 0.40 0.37 0.35 0.28 0.20 0.24 0.30 0.29 0.31 0.28 0.23 0.25 0.41 0.46 0.46 0.48 0.50 0.52 0.53 0.53 0.50 0.50 0.50 0.49 0.46 0.45 0.45 0.46 0.47 0.48 0.48 0.46 0.43 0.41 0.39 0.38 0.37 0.36 0.35 0.34 0.34 0.35 0.36 0.45 0.58 0.65 0.63 0.61 0.63 0.70 0.78 0.85 0.93 1.01 1.09 1.15 1.28 1.30 1.19 1.16 1.18 1.26 1.36 1.44 1.47 1.48 1.50 1.50 1.43 1.41 1.47 1.51
0.51 0.34 0.30 0.30 0.36 0.39 0.46 0.50 0.51 0.50 0.49 0.43 0.45 0.45 0.40 0.34 0.36 0.33 0.31 0.33 0.28 0.29 0.26 0.25 0.22 0.26 0.40 0.47 0.50 0.52 0.54 0.55 0.56 0.56 0.53 0.52 0.53 0.52 0.50 0.47 0.45 0.43 0.45 0.48 0.49 0.48 0.46 0.43 0.41 0.38 0.36 0.36 0.34 0.33 0.33 0.34 0.37 0.43 0.56 0.66 0.68 0.61 0.62 0.72 0.82 0.87 0.91 0.96 1.01 1.08 1.12 1.15 1.16 1.15 1.17 1.23 1.26 1.31 1.36 1.47 1.56 1.56 1.50 1.47 1.50 1.49
0.35 0.37 0.33 0.26 0.25 0.28 0.34 0.39 0.41 0.48 0.47 0.41 0.38 0.43 0.44 0.43 0.42 0.40 0.39 0.40 0.29 0.29 0.29 0.25 0.20 0.26 0.39 0.48 0.51 0.52 0.54 0.53 0.53 0.55 0.55 0.52 0.54 0.53 0.53 0.50 0.47 0.46 0.45 0.45 0.46 0.46 0.45 0.43 0.40 0.38 0.37 0.36 0.35 0.33 0.33 0.34 0.36 0.40 0.49 0.66 0.69 0.64 0.65 0.75 0.87 0.89 0.89 0.91 0.94 1.01 1.01 1.03 1.06 1.08 1.15 1.12 1.16 1.24 1.26 1.25 1.32 1.41 1.46 1.48 1.46 1.47
0.39 0.36 0.33 0.24 0.20 0.18 0.17 0.19 0.23 0.28 0.34 0.40 0.42 0.42 0.44 0.43 0.40 0.37 0.30 0.32 0.26 0.30 0.32 0.27 0.26 0.33 0.42 0.47 0.47 0.51 0.53 0.53 0.55 0.54 0.55 0.55 0.54 0.52 0.50 0.48 0.47 0.47 0.46 0.45 0.45 0.45 0.44 0.44 0.43 0.40 0.39 0.37 0.37 0.35 0.33 0.33 0.34 0.38 0.46 0.59 0.70 0.69 0.70 0.81 0.90 0.90 0.88 0.90 0.91 0.93 0.85 0.85 0.95 0.95 1.00 1.08 1.19 1.21 1.19 1.18 1.22 1.22 1.30 1.43 1.42 1.44
0.39 0.39 0.37 0.33 0.29 0.26 0.30 0.34 0.40 0.43 0.38 0.33 0.36 0.39 0.39 0.44 0.45 0.42 0.38 0.32 0.27 0.32 0.30 0.32 0.33 0.35 0.37 0.41 0.44 0.47 0.51 0.50 0.50 0.51 0.51 0.52 0.53 0.52 0.50 0.49 0.49 0.49 0.48 0.46 0.46 0.47 0.47 0.45 0.44 0.43 0.42 0.41 0.40 0.38 0.36 0.33 0.33 0.36 0.41 0.52 0.66 0.72 0.73 0.84 0.91 0.87 0.84 0.85 0.89 0.84 0.78 0.81 0.87 0.92 0.89 0.93 1.05 1.15 1.20 1.19 1.22 1.25 1.26 1.34 1.39 1.41
0.40 0.33 0.36 0.36 0.36 0.36 0.38 0.38 0.40 0.41 0.35 0.37 0.35 0.34 0.39 0.39 0.41 0.38 0.33 0.30 0.37 0.32 0.25 0.34 0.38 0.35 0.36 0.42 0.44 0.47 0.51 0.52 0.53 0.52 0.52 0.51 0.51 0.50 0.50 0.50 0.51 0.51 0.50 0.50 0.49 0.48 0.46 0.46 0.46 0.45 0.44 0.42 0.41 0.41 0.39 0.37 0.35 0.36 0.39 0.45 0.61 0.71 0.76 0.86 0.93 0.89 0.83 0.78 0.77 0.78 0.78 0.79 0.86 0.92 0.90 0.86 1.02 1.20 1.24 1.22 1.22 1.24 1.30 1.38 1.40 1.41
0.37 0.31 0.36 0.37 0.36 0.40 0.41 0.40 0.41 0.40 0.39 0.38 0.36 0.35 0.34 0.36 0.36 0.33 0.33 0.37 0.38 0.30 0.26 0.34 0.39 0.36 0.39 0.44 0.48 0.50 0.53 0.54 0.54 0.53 0.53 0.53 0.52 0.52 0.51 0.50 0.50 0.50 0.51 0.50 0.50 0.49 0.48 0.46 0.46 0.46 0.46 0.45 0.44 0.42 0.41 0.38 0.36 0.36 0.39 0.46 0.60 0.71 0.75 0.85 0.95 0.93 0.87 0.80 0.74 0.76 0.81 0.85 0.91 0.96 0.97 0.91 1.01 1.19 1.24 1.26 1.25 1.25 1.26 1.29 1.33 1.39
0.40 0.35 0.37 0.38 0.34 0.37 0.39 0.39 0.40 0.38 0.38 0.38 0.36 0.35 0.35 0.34 0.34 0.34 0.32 0.36 0.37 0.35 0.36 0.36 0.38 0.38 0.43 0.46 0.50 0.53 0.58 0.59 0.59 0.59 0.56 0.52 0.50 0.51 0.50 0.50 0.50 0.51 0.51 0.50 0.50 0.50 0.50 0.49 0.48 0.47 0.48 0.47 0.47 0.45 0.44 0.40 0.37 0.36 0.37 0.43 0.57 0.73 0.77 0.80 0.88 0.96 0.92 0.83 0.80 0.80 0.84 0.89 0.95 0.99 0.98 0.92 0.94 1.15 1.21 1.27 1.35 1.35 1.26 1.21 1.24 1.31
0.38 0.33 0.40 0.38 0.33 0.33 0.37 0.39 0.39 0.38 0.36 0.34 0.36 0.35 0.33 0.32 0.33 0.34 0.34 0.34 0.36 0.34 0.36 0.35 0.35 0.35 0.45 0.52 0.51 0.57 0.60 0.60 0.59 0.56 0.54 0.53 0.52 0.52 0.49 0.47 0.47 0.47 0.49 0.50 0.51 0.50 0.50 0.50 0.49 0.49 0.49 0.49 0.48 0.49 0.49 0.46 0.42 0.39 0.38 0.43 0.56 0.70 0.81 0.79 0.77 0.83 0.89 0.90 0.91 0.91 0.94 0.99 1.01 1.02 0.97 0.97 1.01 1.15 1.15 1.21 1.24 1.24 1.25 1.29 1.28 1.16
0.41 0.35 0.40 0.37 0.29 0.29 0.35 0.35 0.35 0.36 0.36 0.34 0.32 0.33 0.33 0.31 0.27 0.30 0.30 0.33 0.31 0.29 0.31 0.31 0.29 0.31 0.41 0.50 0.54 0.56 0.57 0.56 0.55 0.56 0.55 0.54 0.54 0.54 0.50 0.49 0.48 0.48 0.48 0.49 0.50 0.51 0.52 0.51 0.49 0.49 0.49 0.50 0.51 0.52 0.53 0.51 0.49 0.44 0.40 0.42 0.53 0.72 0.86 0.86 0.80 0.79 0.83 0.90 0.96 0.98 1.01 1.05 1.06 0.98 0.92 0.98 1.06 1.07 1.10 1.16 1.18 1.19 1.22 1.24 1.26 1.25
0.38 0.35 0.32 0.33 0.27 0.26 0.32 0.35 0.34 0.33 0.31 0.28 0.29 0.32 0.33 0.34 0.33 0.33 0.35 0.35 0.34 0.37 0.30 0.25 0.27 0.37 0.44 0.51 0.49 0.50 0.54 0.54 0.56 0.58 0.58 0.58 0.59 0.58 0.54 0.53 0.53 0.52 0.52 0.53 0.54 0.54 0.56 0.57 0.55 0.54 0.54 0.54 0.53 0.54 0.57 0.59 0.55 0.50 0.47 0.44 0.51 0.77 0.89 0.91 0.86 0.81 0.80 0.86 0.89 0.91 0.96 1.01 1.04 1.01 0.96 1.01 1.03 1.06 1.06 1.10 1.14 1.18 1.21 1.20 1.21 1.24
0.40 0.36 0.32 0.37 0.26 0.26 0.31 0.32 0.33 0.28 0.19 0.21 0.36 0.40 0.37 0.32 0.32 0.28 0.28 0.31 0.33 0.38 0.34 0.36 0.36 0.39 0.41 0.45 0.47 0.48 0.51 0.53 0.57 0.62 0.66 0.65 0.63 0.61 0.59 0.57 0.54 0.54 0.55 0.56 0.58 0.60 0.62 0.65 0.64 0.62 0.61 0.59 0.60 0.61 0.64 0.66 0.62 0.60 0.57 0.51 0.52 0.67 0.80 0.89 0.91 0.86 0.82 0.82 0.83 0.85 0.90 0.94 0.95 0.96 0.95 1.01 1.04 1.09 1.12 1.17 1.21 1.22 1.20 1.19 1.17 1.13
0.35 0.36 0.33 0.36 0.28 0.27 0.32 0.30 0.23 0.18 0.21 0.34 0.41 0.43 0.43 0.40 0.39 0.35 0.33 0.34 0.34 0.38 0.37 0.34 0.35 0.36 0.37 0.41 0.47 0.51 0.54 0.57 0.61 0.63 0.65 0.69 0.68 0.67 0.62 0.60 0.59 0.56 0.54 0.55 0.57 0.60 0.63 0.68 0.68 0.66 0.66 0.65 0.65 0.65 0.67 0.66 0.68 0.68 0.65 0.59 0.52 0.63 0.75 0.80 0.84 0.83 0.83 0.83 0.85 0.87 0.89 0.92 0.94 0.96 0.98 1.01 1.03 1.06 1.08 1.12 1.20 1.24 1.22 1.19 1.16 1.13
0.33 0.33 0.34 0.32 0.33 0.33 0.28 0.25 0.16 0.18 0.31 0.38 0.38 0.41 0.44 0.43 0.41 0.35 0.29 0.32 0.34 0.36 0.35 0.31 0.34 0.36 0.37 0.37 0.42 0.49 0.52 0.55 0.59 0.64 0.66 0.68 0.70 0.70 0.66 0.64 0.63 0.62 0.59 0.59 0.59 0.61 0.63 0.67 0.70 0.69 0.67 0.71 0.70 0.68 0.69 0.70 0.75 0.72 0.70 0.67 0.61 0.61 0.72 0.79 0.82 0.83 0.86 0.86 0.89 0.91 0.94 0.94 0.94 0.96 0.97 0.99 1.01 1.01 1.03 1.04 1.06 1.09 1.17 1.19 1.18 1.20
0.37 0.36 0.35 0.29 0.35 0.23 0.25 0.24 0.22 0.31 0.31 0.35 0.33 0.37 0.38 0.33 0.32 0.29 0.21 0.24 0.33 0.36 0.34 0.33 0.33 0.34 0.34 0.35 0.40 0.45 0.49 0.51 0.49 0.55 0.66 0.67 0.70 0.72 0.70 0.68 0.68 0.68 0.66 0.66 0.66 0.64 0.67 0.70 0.74 0.75 0.73 0.72 0.72 0.70 0.70 0.75 0.79 0.76 0.73 0.69 0.68 0.67 0.69 0.76 0.79 0.81 0.81 0.79 0.81 0.85 0.92 0.96 0.95 0.95 0.96 0.95 0.94 0.93 0.96 0.98 1.00 1.05 1.14 1.14 1.15 1.14
0.41 0.33 0.38 0.29 0.28 0.31 0.24 0.21 0.22 0.22 0.19 0.26 0.36 0.43 0.46 0.43 0.41 0.40 0.33 0.23 0.34 0.35 0.37 0.35 0.32 0.32 0.31 0.33 0.36 0.41 0.47 0.41 0.38 0.46 0.60 0.65 0.69 0.70 0.73 0.73 0.71 0.72 0.73 0.73 0.72 0.69 0.69 0.72 0.78 0.79 0.75 0.73 0.73 0.75 0.75 0.75 0.75 0.78 0.75 0.72 0.70 0.68 0.73 0.73 0.72 0.74 0.73 0.71 0.75 0.79 0.85 0.89 0.90 0.90 0.93 0.94 0.91 0.91 0.95 0.99 1.02 1.04 1.10 1.09 1.10 1.10
0.42 0.42 0.39 0.33 0.28 0.29 0.25 0.20 0.19 0.18 0.22 0.34 0.37 0.41 0.44 0.43 0.41 0.43 0.28 0.18 0.29 0.33 0.36 0.36 0.32 0.32 0.31 0.30 0.33 0.39 0.38 0.32 0.34 0.43 0.58 0.62 0.65 0.70 0.68 0.71 0.72 0.72 0.74 0.76 0.77 0.71 0.69 0.71 0.78 0.80 0.79 0.76 0.73 0.76 0.77 0.75 0.71 0.70 0.77 0.79 0.75 0.73 0.70 0.75 0.84 0.88 0.85 0.82 0.83 0.85 0.88 0.92 0.93 0.92 0.92 0.92 0.90 0.90 0.91 0.92 0.94 1.00 1.05 1.07 1.10 1.09
0.36 0.38 0.36 0.30 0.29 0.29 0.26 0.22 0.20 0.25 0.25 0.35 0.40 0.42 0.43 0.42 0.41 0.32 0.11 0.11 0.26 0.33 0.36 0.35 0.32 0.31 0.30 0.31 0.32 0.34 0.35 0.31 0.36 0.45 0.56 0.59 0.63 0.66 0.68 0.68 0.66 0.68 0.72 0.77 0.81 0.78 0.74 0.72 0.73 0.74 0.76 0.75 0.75 0.78 0.78 0.77 0.74 0.69 0.71 0.78 0.81 0.76 0.75 0.74 0.73 0.74 0.78 0.85 0.87 0.87 0.88 0.90 0.91 0.92 0.91 0.89 0.89 0.89 0.86 0.88 0.92 0.95 0.98 1.02 1.06 1.06
0.29 0.30 0.33 0.28 0.29 0.29 0.27 0.25 0.27 0.29 0.36 0.41 0.42 0.44 0.43 0.41 0.33 0.15 0.11 0.18 0.30 0.34 0.35 0.35 0.33 0.32 0.31 0.29 0.30 0.28 0.37 0.45 0.49 0.53 0.56 0.57 0.57 0.62 0.68 0.70 0.67 0.67 0.70 0.75 0.80 0.82 0.77 0.71 0.68 0.70 0.74 0.78 0.81 0.80 0.79 0.77 0.72 0.69 0.70 0.72 0.75 0.77 0.79 0.81 0.82 0.80 0.77 0.77 0.76 0.77 0.82 0.86 0.86 0.85 0.87 0.88 0.88 0.88 0.87 0.86 0.84 0.86 0.89 0.92 0.99 1.05
0.27 0.28 0.31 0.31 0.28 0.26 0.27 0.23 0.24 0.28 0.37 0.43 0.46 0.45 0.43 0.30 0.15 0.13 0.24 0.35 0.35 0.32 0.34 0.34 0.31 0.31 0.30 0.29 0.29 0.32 0.38 0.46 0.49 0.52 0.52 0.53 0.53 0.58 0.64 0.67 0.65 0.64 0.69 0.74 0.79 0.82 0.77 0.72 0.68 0.68 0.72 0.77 0.80 0.82 0.81 0.76 0.71 0.70 0.71 0.69 0.67 0.73 0.81 0.83 0.84 0.83 0.79 0.77 0.78 0.78 0.77 0.77 0.81 0.84 0.85 0.88 0.90 0.88 0.86 0.86 0.86 0.83 0.82 0.85 0.90 0.94
0.25 0.23 0.23 0.25 0.30 0.31 0.30 0.24 0.21 0.18 0.34 0.45 0.44 0.41 0.41 0.23 0.22 0.31 0.33 0.33 0.35 0.33 0.32 0.31 0.30 0.29 0.30 0.27 0.29 0.31 0.37 0.42 0.45 0.46 0.49 0.51 0.50 0.52 0.60 0.64 0.62 0.59 0.61 0.66 0.73 0.80 0.78 0.71 0.68 0.66 0.67 0.72 0.76 0.79 0.81 0.78 0.72 0.69 0.69 0.68 0.71 0.75 0.77 0.79 0.80 0.80 0.80 0.78 0.77 0.78 0.80 0.79 0.78 0.77 0.79 0.80 0.83 0.83 0.80 0.82 0.82 0.80 0.81 0.81 0.84 0.87
0.35 0.24 0.26 0.29 0.34 0.24 0.24 0.21 0.21 0.29 0.39 0.47 0.42 0.30 0.34 0.35 0.37 0.36 0.34 0.30 0.33 0.32 0.30 0.29 0.29 0.29 0.30 0.28 0.27 0.29 0.35 0.39 0.42 0.43 0.44 0.46 0.46 0.47 0.57 0.61 0.62 0.60 0.60 0.64 0.70 0.78 0.80 0.76 0.73 0.71 0.69 0.70 0.71 0.73 0.76 0.77 0.75 0.72 0.68 0.68 0.74 0.75 0.76 0.76 0.76 0.75 0.73 0.72 0.73 0.75 0.77 0.80 0.82 0.81 0.80 0.78 0.79 0.79 0.76 0.76 0.77 0.78 0.79 0.80 0.81 0.82
0.38 0.30 0.33 0.26 0.37 0.30 0.27 0.31 0.39 0.44 0.45 0.47 0.45 0.42 0.42 0.42 0.42 0.39 0.37 0.34 0.30 0.30 0.32 0.29 0.27 0.28 0.29 0.28 0.27 0.29 0.32 0.37 0.39 0.43 0.43 0.43 0.44 0.45 0.50 0.56 0.58 0.58 0.58 0.60 0.63 0.72 0.80 0.80 0.77 0.75 0.74 0.75 0.73 0.72 0.73 0.74 0.73 0.74 0.71 0.73 0.74 0.73 0.73 0.73 0.73 0.72 0.69 0.68 0.68 0.68 0.70 0.74 0.78 0.81 0.82 0.82 0.81 0.77 0.75 0.72 0.74 0.73 0.74 0.74 0.75 0.77
0.39 0.41 0.44 0.38 0.34 0.43 0.44 0.44 0.47 0.47 0.46 0.44 0.47 0.46 0.44 0.43 0.43 0.41 0.37 0.32 0.32 0.30 0.31 0.29 0.28 0.27 0.26 0.28 0.26 0.26 0.31 0.35 0.38 0.41 0.43 0.43 0.42 0.43 0.46 0.51 0.53 0.57 0.59 0.59 0.60 0.64 0.71 0.80 0.82 0.81 0.80 0.82 0.81 0.78 0.74 0.72 0.72 0.70 0.73 0.79 0.78 0.77 0.74 0.71 0.69 0.68 0.68 0.68 0.67 0.67 0.67 0.66 0.67 0.72 0.77 0.80 0.83 0.80 0.78 0.73 0.72 0.69 0.69 0.70 0.71 0.74
0.36 0.41 0.39 0.32 0.39 0.34 0.28 0.41 0.41 0.42 0.44 0.43 0.43 0.45 0.46 0.46 0.44 0.42 0.38 0.34 0.32 0.31 0.30 0.31 0.29 0.27 0.26 0.27 0.27 0.26 0.29 0.34 0.37 0.40 0.42 0.42 0.40 0.41 0.42 0.45 0.47 0.51 0.57 0.56 0.58 0.60 0.62 0.67 0.72 0.78 0.81 0.80 0.85 0.85 0.84 0.80 0.74 0.73 0.74 0.77 0.80 0.80 0.78 0.74 0.70 0.66 0.65 0.65 0.66 0.67 0.66 0.63 0.62 0.63 0.68 0.75 0.80 0.82 0.80 0.79 0.76 0.73 0.72 0.72 0.72 0.74
0.30 0.46 0.36 0.35 0.35 0.32 0.31 0.38 0.41 0.44 0.45 0.45 0.44 0.43 0.43 0.44 0.44 0.44 0.41 0.37 0.34 0.33 0.32 0.31 0.30 0.27 0.28 0.26 0.28 0.28 0.29 0.32 0.35 0.37 0.40 0.41 0.39 0.39 0.40 0.42 0.42 0.46 0.52 0.59 0.59 0.58 0.57 0.59 0.62 0.67 0.73 0.79 0.83 0.87 0.90 0.88 0.85 0.79 0.77 0.77 0.79 0.81 0.81 0.77 0.74 0.70 0.68 0.66 0.65 0.64 0.64 0.63 0.62 0.62 0.62 0.66 0.72 0.76 0.78 0.79 0.79 0.76 0.73 0.72 0.74 0.74
0.34 0.38 0.27 0.35 0.32 0.37 0.40 0.41 0.42 0.42 0.43 0.43 0.44 0.46 0.46 0.45 0.44 0.43 0.42 0.39 0.35 0.33 0.32 0.31 0.31 0.29 0.28 0.27 0.29 0.29 0.27 0.28 0.32 0.37 0.39 0.40 0.40 0.38 0.38 0.41 0.41 0.43 0.47 0.52 0.55 0.57 0.55 0.55 0.55 0.58 0.62 0.67 0.78 0.83 0.86 0.89 0.91 0.91 0.85 0.82 0.81 0.80 0.78 0.78 0.78 0.76 0.73 0.71 0.69 0.66 0.65 0.64 0.63 0.62 0.62 0.62 0.66 0.70 0.74 0.75 0.77 0.77 0.77 0.82 0.85 0.85
0.34 0.28 0.34 0.34 0.29 0.29 0.29 0.33 0.38 0.32 0.33 0.40 0.43 0.45 0.46 0.46 0.45 0.43 0.42 0.39 0.36 0.33 0.32 0.31 0.30 0.31 0.30 0.30 0.29 0.29 0.27 0.27 0.29 0.33 0.36 0.39 0.39 0.38 0.38 0.39 0.40 0.41 0.42 0.48 0.51 0.54 0.55 0.54 0.53 0.53 0.56 0.59 0.65 0.74 0.80 0.85 0.90 0.93 0.93 0.92 0.86 0.84 0.79 0.77 0.77 0.76 0.74 0.73 0.70 0.67 0.65 0.63 0.62 0.61 0.61 0.62 0.61 0.62 0.66 0.75 0.78 0.79 0.79 0.79 0.88 0.92
0.30 0.31 0.33 0.30 0.29 0.27 0.36 0.42 0.44 0.43 0.42 0.44 0.44 0.46 0.46 0.46 0.45 0.42 0.41 0.38 0.36 0.35 0.34 0.32 0.29 0.29 0.29 0.31 0.32 0.30 0.28 0.27 0.27 0.31 0.34 0.37 0.39 0.41 0.40 0.38 0.37 0.37 0.39 0.43 0.43 0.44 0.47 0.50 0.52 0.51 0.50 0.54 0.57 0.59 0.68 0.78 0.85 0.90 0.93 0.94 0.94 0.91 0.84 0.79 0.77 0.76 0.75 0.73 0.70 0.69 0.66 0.63 0.61 0.61 0.61 0.61 0.60 0.60 0.59 0.60 0.69 0.75 0.77 0.81 0.86 0.91
Wind_Speed
4 3 4 5 7 7 8 7 8 9 8 9 10 11 12 13 14 14 14 15 14 15 17 17 18 19 19 18 19 21 20 21 23 24 24 24 25 26 27 28 29 30 31 31 31 33 36 37 38 38 37 37 35 33 33 34 36 37 35 37 39 38 39 39 38 37 37 36 35 34 33 32 31 31 30 29 28 28 27 27 27 26 25 25 24 22
4 4 5 7 7 8 9 8 8 9 9 11 11 12 13 14 14 15 14 15 13 15 17 17 19 21 20 19 19 19 19 21 23 24 25 24 24 25 26 28 29 30 30 30 30 31 34 36 38 38 38 38 37 35 33 32 35 36 34 35 37 37 37 37 37 37 37 36 35 34 33 32 32 32 31 29 28 28 28 28 27 27 26 25 24 23
5 5 7 8 8 9 9 8 8 10 10 10 11 11 13 13 14 15 14 14 14 14 17 18 20 21 21 19 18 18 19 21 22 23 24 24 23 24 25 26 28 29 30 30 30 30 32 35 37 37 37 39 39 37 35 32 32 34 33 33 36 36 36 36 36 36 35 35 35 35 34 33 33 33 31 30 29 29 28 28 28 28 27 26 25 24
6 7 8 8 8 9 10 9 9 10 10 9 10 11 13 13 13 14 15 15 16 16 17 18 20 21 20 19 18 18 18 19 20 22 23 23 24 24 24 24 26 28 29 30 31 30 30 32 35 37 37 38 39 38 38 35 33 32 32 32 35 37 36 36 36 34 33 34 34 35 35 34 34 34 32 30 30 29 29 28 28 28 27 26 26 25
7 8 9 8 7 8 9 11 10 9 10 10 11 12 13 13 13 14 15 16 17 17 16 17 19 19 17 16 16 15 16 17 17 18 20 21 23 23 24 24 25 27 28 29 31 31 31 31 33 36 38 38 39 39 39 38 35 34 33 32 33 36 37 37 37 35 33 33 35 35 34 34 34 33 33 31 30 30 29 28 28 28 28 27 26 26
7 7 8 8 8 8 9 10 10 9 10 12 12 12 13 14 15 16 16 16 16 15 15 14 16 16 13 12 14 14 15 15 15 15 17 20 21 22 24 25 25 26 28 29 30 31 31 31 31 34 36 38 40 40 40 40 37 35 35 34 32 34 36 37 38 38 36 34 35 35 34 34 34 33 33 32 31 30 29 29 29 29 28 28 27 26
7 8 7 7 8 8 8 9 10 9 9 11 12 12 13 14 15 16 16 16 15 15 15 13 13 15 14 12 14 14 13 14 14 15 17 19 19 21 22 24 25 26 27 29 30 30 31 32 32 32 34 37 40 41 42 42 40 37 35 34 33 33 35 36 37 39 39 36 35 35 35 34 34 34 34 33 32 30 29 29 29 29 28 28 27 26
8 9 9 8 8 9 8 9 10 9 9 12 12 12 14 15 16 16 16 16 16 16 16 14 13 16 16 13 14 13 12 14 15 16 17 16 16 17 19 22 24 26 28 29 30 30 31 31 32 33 34 36 38 40 42 42 41 39 37 35 34 33 34 35 36 37 39 40 38 35 35 34 34 34 33 32 32 30 29 29 29 29 29 28 27 26
7 8 9 8 8 8 8 9 10 10 10 12 13 13 15 15 16 16 15 15 15 14 14 13 12 14 15 14 14 13 12 14 14 14 15 14 15 16 18 20 22 24 27 29 31 31 32 32 33 33 34 35 37 39 41 41 40 40 39 36 35 35 34 35 37 38 38 41 40 37 35 34 34 34 32 31 32 31 30 29 29 29 29 28 27 27
6 7 7 7 7 8 8 10 10 10 11 13 13 14 14 14 15 15 14 13 13 11 12 12 12 13 13 12 13 12 11 12 13 13 14 15 17 17 19 20 21 23 25 28 30 32 33 33 34 34 34 35 36 39 41 42 41 42 41 39 37 36 36 35 37 39 40 41 41 38 36 35 34 34 32 31 32 33 31 29 29 29 29 29 28 27
6 8 7 6 7 7 9 10 10 9 11 13 13 13 13 13 13 12 11 10 9 10 11 11 11 12 12 9 8 8 8 10 12 13 15 17 18 18 19 20 21 23 24 26 29 31 33 34 34 35 35 36 37 38 40 43 44 44 43 42 40 38 37 36 37 39 42 45 42 39 38 37 35 35 34 33 33 34 33 31 29 29 29 29 29 28
7 8 8 7 8 9 9 10 10 9 11 12 11 12 12 11 11 9 9 8 7 9 10 10 10 10 10 9 8 9 10 11 12 14 17 17 18 18 18 19 19 21 23 25 27 30 32 33 34 35 36 37 37 38 40 42 44 45 44 44 44 42 39 37 37 39 42 47 45 41 40 39 37 36 35 35 35 35 35 33 30 29 29 29 29 29
6 7 9 9 8 10 11 11 11 11 12 12 12 13 11 10 10 9 8 8 8 9 9 10 10 9 11 13 13 13 13 13 14 15 17 17 18 18 18 18 18 19 20 22 24 27 29 32 34 35 36 37 37 38 39 41 43 44 44 45 45 45 42 38 38 39 42 46 46 43 42 40 38 38 37 36 36 36 36 35 32 29 28 29 29 29
5 6 10 10 8 10 12 12 13 13 14 14 13 13 11 10 10 9 9 9 9 10 11 11 10 9 10 12 12 12 13 14 16 16 17 17 18 19 19 19 19 19 19 20 22 24 26 29 32 34 36 37 38 38 39 40 42 43 44 45 46 46 44 40 39 40 41 44 46 44 42 41 40 40 39 37 37 38 37 37 35 31 29 29 29 29
5 6 8 9 8 10 12 12 13 13 13 14 12 12 11 10 10 10 10 11 11 12 12 11 10 8 9 11 12 13 14 15 15 15 15 15 16 18 19 19 19 20 20 20 21 23 24 26 29 32 34 36 37 38 39 39 41 42 44 45 47 46 45 42 41 42 43 43 44 44 42 41 41 41 40 39 39 39 39 38 37 34 31 29 29 29
5 4 6 7 7 9 11 12 13 13 14 14 13 12 12 11 9 10 11 12 13 12 10 9 8 9 11 13 13 12 12 12 13 14 15 16 17 18 18 19 20 21 21 21 22 23 24 25 26 29 32 34 36 37 38 39 40 42 43 45 47 47 46 44 42 43 43 43 44 44 43 42 41 41 41 40 40 41 40 39 39 37 33 30 30 29
5 4 5 7 7 9 11 11 14 15 15 15 14 14 13 10 10 11 12 13 12 10 10 8 9 12 12 12 11 11 12 12 13 14 15 16 18 18 19 20 22 23 23 23 23 23 24 25 26 27 29 32 34 36 38 39 41 42 43 44 46 46 46 45 43 43 43 42 43 42 42 42 42 42 42 42 42 42 41 39 39 39 36 32 30 30
5 4 6 7 8 9 10 11 13 16 17 15 15 15 13 10 11 12 12 12 11 10 10 9 10 12 12 11 12 13 14 15 14 15 16 17 17 18 20 22 23 23 24 24 23 23 24 25 26 26 27 30 33 35 36 38 41 42 43 44 45 46 47 47 45 43 43 43 43 42 41 42 42 42 42 43 44 43 41 40 39 39 38 35 33 32
5 4 5 6 7 9 10 11 13 16 17 16 14 15 14 11 11 13 12 12 12 12 11 10 10 12 11 11 14 16 17 17 17 16 16 17 18 19 21 23 23 23 23 24 23 23 23 24 25 26 27 29 32 34 35 36 39 42 44 44 45 45 47 48 47 45 44 44 44 43 43 42 41 40 40 42 44 44 43 42 40 40 39 37 35 34
5 4 5 7 7 8 10 11 12 14 16 16 14 15 15 13 12 13 13 12 12 13 12 12 12 12 12 13 16 17 18 18 18 19 18 18 19 20 21 22 22 22 22 23 23 23 23 23 24 26 27 28 30 33 35 35 38 41 44 44 45 46 46 48 49 48 47 46 46 45 44 43 42 40 39 41 44 45 44 43 41 40 39 37 36 34
5 5 5 7 7 7 8 10 11 13 14 15 15 16 17 16 14 13 13 12 12 12 12 12 13 14 14 15 17 18 20 20 21 22 21 21 21 21 22 22 22 21 21 22 23 23 23 23 24 25 26 27 29 31 34 35 36 40 43 44 45 46 46 47 49 49 49 49 49 48 46 45 43 41 39 39 42 45 45 43 41 40 39 38 36 35
5 5 5 7 7 7 7 8 9 11 12 14 15 15 16 17 16 14 14 14 14 12 12 12 13 16 17 17 18 21 22 23 23 23 24 24 24 23 23 23 23 22 22 22 23 24 23 23 23 24 25 26 27 29 32 34 35 38 42 44 45 46 47 47 48 49 49 50 50 49 48 46 45 42 39 39 40 42 43 43 41 40 39 39 37 36
4 4 6 6 6 6 7 8 9 10 11 13 13 14 14 15 16 15 14 15 16 14 13 13 14 16 19 20 21 24 24 24 25 24 24 25 25 24 23 23 23 22 22 22 23 24 23 23 23 24 24 25 26 27 30 33 34 36 40 43 45 46 48 48 48 48 49 50 50 49 48 48 47 43 41 40 39 39 40 41 41 40 39 39 38 37
4 5 6 7 6 6 7 8 10 10 12 12 13 14 15 14 14 14 13 15 15 15 15 15 15 17 21 23 24 26 27 26 25 25 24 22 23 23 23 23 22 22 22 22 23 23 23 23 23 23 24 24 25 26 28 31 33 35 38 42 45 46 48 49 49 48 48 50 50 48 48 48 47 45 42 41 40 38 38 39 39 39 39 39 39 39
5 5 6 6 7 7 7 8 9 11 12 12 12 14 15 15 15 13 14 15 14 14 17 16 15 19 24 26 28 28 27 27 25 24 21 17 17 19 20 21 21 21 21 22 22 22 23 23 23 22 23 23 25 26 27 29 32 34 36 40 44 45 47 49 50 49 49 49 49 48 48 48 48 47 44 42 40 39 38 37 38 38 39 40 40 40
4 4 5 5 6 6 6 7 9 11 12 12 12 14 15 16 16 15 14 14 14 15 18 17 17 22 26 28 30 29 27 27 25 22 19 15 13 15 16 17 18 19 20 20 21 21 22 22 22 22 23 23 24 26 27 29 31 33 35 38 42 44 45 47 49 50 50 50 50 49 48 47 48 48 45 42 41 40 38 37 37 38 39 40 41 40
4 5 5 5 5 6 7 7 8 10 11 11 12 13 14 15 15 15 14 15 15 17 18 18 20 25 28 30 32 32 29 27 24 21 18 15 13 12 13 14 15 15 16 17 18 19 20 21 21 22 23 24 24 25 27 29 30 32 34 36 40 42 44 45 47 49 50 51 51 51 50 48 47 47 46 44 42 42 40 38 38 38 38 40 41 42
5 6 6 5 6 7 7 8 8 8 9 10 11 12 14 14 15 15 14 15 17 17 17 21 23 25 27 29 32 33 30 27 25 21 18 16 14 12 12 12 12 11 11 12 13 16 18 19 20 21 22 24 25 25 26 28 30 32 33 35 37 41 43 44 45 47 48 49 49 50 50 49 47 46 46 44 42 42 42 40 39 39 39 39 41 42
5 7 6 6 7 7 7 8 8 8 8 9 10 11 13 14 14 14 14 16 17 16 18 23 25 25 26 27 29 32 30 27 25 22 18 17 15 12 11 11 11 10 10 10 12 14 16 18 19 20 21 22 24 25 26 28 30 31 33 34 36 39 41 43 45 46 47 48 48 48 48 49 48 46 45 45 43 43 44 42 40 40 39 40 40 41
5 7 7 7 8 8 7 7 7 8 8 9 11 11 13 14 13 13 15 16 16 16 18 22 24 23 24 25 27 30 29 27 25 22 19 18 17 14 12 11 11 11 11 11 13 14 15 16 17 18 19 20 21 23 25 27 29 31 33 33 35 37 39 42 44 45 45 46 46 46 46 46 47 46 45 45 44 44 44 43 42 40 40 40 40 40
6 7 7 7 8 9 8 6 6 8 7 8 11 12 12 14 14 14 15 16 16 17 19 22 23 22 22 23 25 28 29 28 27 24 21 18 18 16 14 13 12 13 13 14 14 16 16 17 17 18 18 19 20 22 23 25 28 31 32 33 35 36 37 39 42 44 45 44 43 43 44 44 44 44 44 44 44 44 43 43 43 42 41 41 41 41
6 7 8 7 8 9 8 8 8 8 7 7 11 13 13 13 14 13 14 16 17 18 20 22 23 23 24 25 25 27 28 28 28 26 23 20 19 19 17 15 15 14 15 16 16 17 18 19 19 19 20 20 20 20 21 23 26 29 31 33 34 36 37 38 40 42 43 43 42 40 40 41 42 43 43 42 43 43 42 42 43 43 42 42 41 42
5 6 7 8 8 9 9 9 10 9 7 8 11 12 12 12 13 14 14 16 17 17 19 22 22 22 24 25 25 26 27 27 27 26 24 22 21 20 20 19 17 16 17 17 17 17 18 19 20 21 21 21 20 20 21 21 23 26 30 32 34 35 37 37 37 39 41 41 41 40 39 39 41 41 41 41 41 42 42 42 43 44 44 43 42 41
6 6 7 8 8 9 11 11 9 8 8 9 10 10 11 12 13 14 15 16 17 16 17 19 20 22 23 24 24 25 26 26 26 25 24 23 22 21 22 22 21 19 18 18 18 18 18 18 19 20 21 21 21 20 20 20 21 24 27 30 33 35 36 37 37 38 39 40 40 39 38 39 41 41 41 41 41 41 42 43 44 44 44 44 43 42
6 6 7 7 8 9 10 10 8 8 9 10 11 11 10 11 12 14 15 15 16 16 17 19 20 21 22 23 23 24 25 25 25 24 23 25 25 23 23 25 24 21 20 19 19 18 18 18 18 18 19 20 20 19 19 19 19 21 24 28 31 34 35 37 37 37 38 39 39 39 38 38 40 40 40 41 41 41 41 42 44 45 45 45 45 44
5 6 6 7 8 8 9 8 7 9 10 10 11 12 12 12 13 15 15 14 15 16 17 19 20 21 22 23 23 24 25 25 23 22 23 26 27 26 24 25 25 22 20 19 19 18 17 17 17 16 16 18 18 18 18 18 18 19 22 24 28 32 34 36 37 36 37 38 38 39 39 39 39 39 40 39 40 40 40 41 42 43 45 46 46 46
5 5 6 7 7 7 8 8 9 9 9 10 11 12 13 13 14 14 15 14 15 16 17 18 20 20 21 22 23 24 24 22 20 21 24 26 28 27 26 26 26 24 21 19 18 17 16 15 15 14 14 15 16 17 17 17 17 18 20 22 25 29 32 34 36 37 37 37 38 39 40 40 40 40 41 40 39 39 40 40 40 41 43 45 47 47
5 6 6 7 8 7 8 9 9 9 8 9 12 14 14 13 13 13 14 14 14 16 18 19 19 20 21 22 23 24 22 20 19 21 25 27 28 28 27 26 26 25 23 20 18 17 14 12 12 12 12 12 13 14 15 16 16 16 18 20 22 25 29 32 34 35 36 37 38 39 40 40 40 41 42 42 41 40 40 40 40 40 41 43 45 46
6 7 6 7 8 7 7 8 8 8 8 10 12 14 15 14 13 12 13 14 15 17 19 19 19 21 21 21 23 22 21 20 20 22 25 27 27 28 28 28 26 26 25 21 18 17 14 11 10 10 10 10 11 12 13 14 15 16 17 19 22 23 25 28 30 32 34 35 36 37 39 40 41 41 42 42 43 42 41 40 40 39 40 42 43 44
6 7 7 7 7 7 7 8 8 8 9 10 12 15 15 14 12 12 13 14 16 19 20 20 20 21 21 21 21 20 19 19 20 22 25 26 26 27 28 28 28 28 27 24 20 18 14 10 8 8 8 8 9 10 11 12 14 15 16 18 21 23 24 26 28 30 31 33 34 36 38 39 41 42 42 42 43 43 41 40 39 39 39 40 42 43
8 8 8 7 8 8 8 9 10 10 10 10 12 15 14 13 13 13 13 15 18 20 21 20 20 21 21 21 20 18 19 20 21 22 24 24 25 26 27 28 28 28 28 25 22 19 15 11 8 8 8 8 9 9 10 11 12 14 16 18 20 23 25 26 27 28 30 31 33 35 37 38 40 42 43 43 43 43 42 40 39 39 40 40 40 41
8 8 8 8 8 9 9 9 11 11 10 10 13 14 13 13 13 14 15 17 20 20 21 20 20 20 20 20 19 19 20 21 21 22 23 23 24 25 26 27 28 28 28 26 24 21 17 12 9 8 8 8 9 9 10 10 11 13 16 18 20 22 25 27 28 29 29 31 32 34 35 37 39 41 42 43 43 44 44 43 40 40 40 40 40 41
8 8 8 8 8 9 9 9 10 10 10 11 13 14 12 12 13 15 17 18 19 20 20 19 19 19 19 19 19 19 19 20 21 21 22 22 23 24 25 26 27 27 28 27 25 23 19 15 11 9 8 9 9 9 9 10 11 13 14 17 19 22 25 27 28 29 30 31 32 33 35 36 38 40 41 42 43 44 45 45 43 41 41 41 41 41
8 8 9 9 9 9 9 9 9 10 11 12 12 12 12 13 14 16 17 18 18 19 19 18 19 19 18 18 19 19 19 20 20 21 21 21 22 23 24 25 25 26 27 27 25 24 22 18 14 12 10 10 10 10 10 10 11 13 14 16 18 21 24 26 28 30 31 32 33 34 35 36 38 39 40 42 43 44 45 45 45 43 42 42 43 42
9 8 9 10 10 9 9 11 11 12 12 12 12 12 13 14 15 15 16 17 18 18 18 18 19 19 18 18 18 18 19 20 20 20 21 21 21 22 22 23 24 25 26 26 25 24 23 21 18 15 13 12 11 11 11 11 11 12 14 16 18 20 22 25 28 30 32 33 34 35 36 37 38 39 40 41 42 43 45 45 45 44 43 43 44 44
10 9 9 10 11 11 12 12 13 13 13 13 12 12 13 14 15 16 16 17 18 18 18 18 18 18 18 17 17 18 19 19 20 20 20 20 20 21 21 22 23 23 24 25 24 23 22 22 21 19 16 14 13 12 11 12 12 13 14 15 17 19 21 23 27 30 32 34 35 36 37 38 40 41 41 42 42 43 44 45 45 44 44 44 44 45
10 10 10 10 11 12 12 12 12 12 13 13 12 13 14 14 15 16 16 17 18 18 18 18 18 18 18 17 17 18 18 19 19 19 19 19 19 20 20 20 21 22 22 23 23 23 22 21 21 21 20 18 16 15 13 13 13 14 15 15 16 18 20 22 24 28 31 34 36 37 39 40 41 42 43 43 43 44 44 44 44 44 44 44 44 44
9 10 10 10 10 10 12 13 13 13 13 12 12 13 14 15 16 16 17 17 18 18 18 18 18 18 18 17 18 18 18 19 19 19 19 19 19 19 19 20 20 20 21 21 22 22 22 21 21 21 21 20 19 18 17 15 13 13 14 15 16 17 18 20 22 25 28 32 35 38 40 41 42 43 44 44 44 45 45 44 44 44 45 44 44 43
9 10 11 10 11 12 13 14 14 13 13 12 12 13 14 14 16 17 17 17 18 18 18 19 18 18 17 17 17 18 18 19 19 19 19 18 18 18 19 19 20 20 20 20 21 21 21 21 21 21 20 20 20 20 20 18 16 14 13 14 15 17 18 19 21 22 25 28 31 35 39 41 43 44 45 45 45 45 45 45 45 44 44 44 43 43
10 11 10 10 11 12 12 12 12 12 12 12 12 13 14 14 15 16 17 17 18 18 18 19 19 19 18 18 18 17 18 19 19 19 19 18 18 18 19 19 19 19 20 20 20 21 21 21 21 21 21 20 20 20 20 20 19 16 15 14 14 15 17 19 19 20 22 24 27 31 35 39 42 43 45 45 45 45 46 46 46 45 44 44 43 44
11 11 10 10 11 12 13 14 12 12 12 13 12 13 14 14 15 16 16 17 17 18 18 18 18 18 18 18 18 18 18 19 19 19 18 18 18 18 18 19 19 19 20 20 20 21 21 21 21 22 21 21 21 20 20 20 20 19 18 17 16 15 14 16 18 19 20 21 23 27 31 36 39 41 43 45 45 45 45 45 45 45 45 44 43 44
Wind_Direction
320 323 318 306 297 297 296 286 278 281 281 283 285 284 285 287 286 284 282 282 282 283 282 277 276 275 272 270 266 264 262 257 255 254 251 249 246 245 243 243 242 240 239 238 237 236 234 233 232 231 229 228 231 230 227 227 223 218 218 213 208 207 209 210 211 211 213 214 215 216 218 218 218 219 221 221 221 221 221 221 220 219 219 219 220 220
324 328 313 295 285 287 292 287 282 285 286 285 287 289 289 287 285 283 282 284 284 281 281 281 280 278 274 271 267 266 265 259 254 251 250 249 246 244 243 243 242 240 239 239 238 236 235 234 232 230 228 227 228 227 224 223 220 219 220 215 209 207 208 210 210 211 213 214 216 217 218 218 217 218 221 221 220 221 221 221 220 219 218 219 220 220
327 312 297 292 290 292 293 292 287 287 289 288 288 291 292 289 287 286 283 285 286 282 283 284 282 279 276 273 269 266 263 259 256 252 249 248 246 245 243 242 243 242 241 240 238 236 235 234 232 230 228 226 227 227 223 222 220 220 221 220 215 210 208 208 210 211 213 216 218 219 218 217 217 217 219 220 220 220 221 221 220 219 218 219 219 220
321 301 295 301 307 306 302 303 302 297 296 292 290 294 293 292 293 290 287 288 287 283 283 285 283 281 277 274 271 267 263 260 259 255 250 247 245 244 243 242 243 243 242 241 240 238 236 235 233 231 229 227 226 226 224 223 222 221 222 222 219 215 211 210 211 212 215 217 218 217 216 217 217 217 218 220 220 220 220 221 219 218 218 218 220 221
314 298 303 313 315 311 305 306 308 301 297 293 290 291 291 293 292 289 290 292 291 286 284 289 289 282 275 272 272 271 269 263 260 258 253 248 244 243 244 243 242 242 241 240 240 239 237 234 233 231 229 226 225 225 224 223 222 222 223 222 221 218 214 214 215 215 217 218 215 213 214 216 217 218 217 218 219 218 219 219 217 217 218 218 220 221
320 311 319 322 315 316 310 305 303 296 298 299 292 287 287 291 291 291 294 296 296 291 288 295 294 283 275 273 273 275 275 266 260 260 256 252 249 245 245 246 244 243 242 240 239 239 237 234 233 232 229 226 224 224 223 222 222 223 224 222 221 220 218 219 220 219 218 216 213 212 213 216 216 216 216 216 216 216 216 217 216 216 217 218 219 222
329 332 339 334 323 323 317 308 303 301 308 304 295 291 292 294 295 294 296 295 293 288 286 290 286 280 279 275 272 272 270 266 263 263 261 259 255 250 249 249 247 246 244 242 240 238 237 235 232 231 229 226 224 224 221 220 223 223 222 221 220 222 222 222 221 218 216 214 213 213 214 217 215 214 217 216 214 214 215 216 215 216 217 217 219 222
329 333 340 338 330 327 324 318 310 309 312 303 299 305 303 300 299 295 294 292 289 289 289 286 275 277 278 272 271 269 265 270 269 266 264 260 258 256 254 252 249 247 244 243 241 238 236 235 233 231 229 227 225 224 221 220 223 223 221 221 222 224 224 222 220 218 216 216 215 213 213 216 214 212 215 215 213 215 215 215 216 216 217 218 220 222
329 335 339 338 335 333 327 320 312 312 311 304 304 309 305 300 298 296 293 291 290 292 291 285 274 275 277 272 274 274 270 274 272 266 260 256 261 263 259 255 251 248 245 242 241 239 237 235 235 233 230 227 226 225 223 221 222 223 222 223 224 226 225 223 221 220 219 216 213 213 212 213 213 211 213 214 213 213 213 215 216 216 217 218 220 223
337 343 342 347 348 340 330 321 316 317 314 310 312 311 305 302 301 299 296 293 295 294 287 283 275 272 280 278 269 270 271 269 267 261 256 259 267 267 264 259 254 251 247 242 240 239 238 237 235 234 232 230 227 226 225 224 223 223 223 224 225 227 226 225 223 221 219 213 211 212 211 211 211 211 212 214 213 211 212 214 215 216 218 219 221 223
344 353 355 4 1 345 336 332 327 324 321 321 323 319 313 313 314 312 306 303 304 299 290 287 278 270 279 283 265 262 267 266 266 266 264 269 272 270 268 263 257 254 250 245 241 239 239 238 236 235 234 232 230 227 227 226 225 225 225 225 225 226 226 226 224 222 218 213 212 214 213 212 213 213 213 214 213 212 212 213 215 216 219 220 222 224
358 7 2 360 2 356 350 345 341 339 337 337 337 334 330 328 330 329 323 322 315 304 298 299 293 275 269 275 276 278 278 271 268 270 271 272 271 271 271 266 260 257 252 248 244 241 239 238 237 236 235 234 232 230 228 228 227 227 226 225 225 225 226 227 225 222 217 213 214 216 215 216 216 214 214 214 215 214 214 214 215 216 218 220 222 223
1 2 356 356 6 8 4 359 356 355 353 351 348 348 346 340 341 339 329 327 315 301 304 310 307 287 271 274 279 283 282 272 265 268 270 269 270 274 275 270 264 259 255 251 247 244 241 238 236 236 236 235 234 233 231 229 228 227 227 225 224 224 226 227 224 220 217 214 215 217 218 218 218 216 217 216 217 217 217 217 217 217 219 220 221 222
358 348 358 7 13 14 15 12 6 360 358 356 353 353 352 347 346 338 329 329 320 308 308 311 306 293 286 284 281 280 276 272 271 270 270 271 272 274 275 273 269 263 259 255 250 247 244 240 238 236 236 235 235 234 233 231 229 227 226 225 224 224 225 226 223 219 217 215 215 218 219 219 219 218 219 219 219 219 219 219 219 220 221 221 221 222
357 343 1 13 10 11 16 14 7 1 0 359 358 0 359 354 347 338 337 336 327 318 312 310 305 294 294 293 290 287 282 279 278 274 273 276 278 276 275 275 274 270 264 259 254 250 247 244 241 238 237 236 235 235 233 232 229 227 226 224 223 223 223 224 223 219 218 218 217 218 218 219 220 220 220 220 221 220 220 220 220 221 222 222 223 223
358 339 353 4 2 11 14 9 6 6 4 2 4 5 1 356 349 340 336 329 326 325 319 313 303 295 297 299 301 301 295 290 286 282 280 281 282 282 279 277 277 273 268 262 256 252 249 247 245 242 240 237 235 235 234 232 230 227 225 224 223 222 221 222 223 220 219 218 218 218 219 219 221 221 221 221 222 221 222 222 221 222 222 222 223 224
357 341 348 359 2 12 13 7 9 11 6 4 7 5 359 359 357 345 336 332 334 334 330 322 307 307 312 309 310 315 307 299 293 288 285 282 283 284 282 281 278 273 267 261 256 253 250 249 247 245 243 240 237 235 234 233 231 228 225 224 223 222 221 221 222 221 219 217 216 217 218 219 221 222 221 221 221 221 222 223 222 222 222 223 224 224
352 337 345 2 2 3 9 11 12 12 9 7 7 3 1 6 4 354 347 347 349 343 339 332 316 319 324 312 309 315 312 305 298 291 288 287 286 285 285 286 281 274 265 259 256 253 251 249 248 247 246 243 240 236 235 234 232 229 226 224 223 222 221 221 221 221 219 217 216 216 218 219 220 221 221 221 219 220 222 223 222 222 223 224 225 225
355 342 337 354 354 352 4 12 7 6 10 12 9 7 9 8 2 359 358 357 357 354 351 349 336 330 327 317 316 317 313 306 300 295 290 287 284 283 286 289 285 277 266 257 254 253 252 251 249 248 248 246 243 239 236 234 232 230 227 225 223 222 222 221 221 220 219 219 218 218 220 222 222 222 222 220 217 218 220 221 221 223 224 225 226 226
354 349 330 342 350 351 360 7 5 1 7 13 15 17 18 13 5 2 2 1 2 3 1 360 354 346 336 328 324 319 312 305 300 296 290 284 281 280 284 287 285 278 267 257 253 252 253 253 250 249 248 247 245 241 237 235 232 230 227 225 223 222 222 222 221 219 219 220 220 220 222 224 225 225 224 220 218 218 219 220 221 223 224 224 224 225
351 346 326 335 352 359 356 0 6 2 3 10 15 17 17 16 13 10 9 7 3 4 5 1 354 347 341 336 330 323 316 307 300 295 288 282 280 279 280 283 283 277 268 258 252 251 252 253 252 250 248 248 246 242 238 236 233 230 228 225 223 222 222 222 221 220 220 221 221 221 222 225 227 229 228 224 221 219 219 219 220 222 222 222 222 223
341 339 333 336 347 355 347 348 0 3 4 9 12 11 11 13 14 12 15 14 7 5 1 356 351 346 346 344 338 332 324 315 307 297 288 281 280 280 279 281 281 276 268 259 253 251 252 252 252 252 250 249 247 243 240 238 234 231 227 225 224 222 221 221 221 221 221 222 222 222 223 225 227 230 231 228 224 222 220 219 219 221 222 222 222 223
326 339 343 334 333 340 339 345 356 3 8 10 11 7 4 10 12 9 9 7 4 3 358 354 354 350 350 350 343 335 329 324 317 306 294 282 277 278 279 281 282 277 268 259 253 251 251 252 253 252 251 250 248 245 241 238 236 232 228 226 224 223 221 221 221 221 221 222 222 223 224 226 227 229 231 230 228 226 223 221 220 222 223 222 221 222
319 339 345 333 330 340 347 352 356 1 6 5 4 4 2 3 5 3 2 359 357 358 358 356 355 350 350 351 345 336 331 329 324 315 304 289 278 277 279 280 282 279 270 261 254 251 250 252 253 252 251 250 248 246 242 239 237 234 229 226 224 224 222 221 221 221 222 223 223 224 225 226 226 227 229 230 231 230 229 226 223 222 223 223 221 222
315 333 345 338 336 340 347 351 348 350 357 357 354 359 1 359 358 359 1 360 357 357 356 354 349 345 348 350 346 342 339 336 331 324 315 302 287 282 281 281 282 280 274 264 256 253 251 252 253 252 252 251 249 246 244 240 238 236 231 227 225 224 223 222 221 222 223 224 224 224 224 225 224 225 227 229 231 232 232 230 226 225 224 223 221 222
313 324 334 336 329 325 329 336 337 340 347 352 352 355 358 359 359 359 359 359 358 355 352 349 343 342 345 350 350 349 348 345 340 334 330 320 303 291 287 285 285 282 276 267 258 253 252 252 252 253 254 252 250 248 246 242 238 237 233 228 225 224 224 223 222 222 224 225 225 224 224 223 223 223 225 228 230 231 231 229 227 226 224 222 221 223
314 312 311 316 313 312 317 320 330 340 344 348 351 352 355 357 358 358 359 358 354 350 350 348 343 341 345 350 353 354 354 351 348 345 341 333 320 303 295 295 294 288 279 268 258 253 253 253 253 255 255 254 253 250 248 245 240 237 235 230 226 224 224 224 223 223 223 224 225 225 225 225 224 224 225 227 230 231 229 227 226 226 224 222 222 224
314 308 302 301 298 302 309 310 323 338 340 343 348 349 352 356 359 1 1 357 354 353 352 349 346 344 347 351 354 355 356 355 353 352 346 338 330 316 306 305 306 301 289 275 264 258 258 258 257 257 258 258 256 254 251 247 242 238 236 232 227 224 223 223 223 223 223 224 225 226 227 226 226 227 227 227 229 230 228 227 226 225 225 224 224 225
307 303 298 298 296 297 300 302 315 327 328 337 345 345 348 352 356 0 359 357 356 354 349 347 346 346 348 353 355 355 356 357 355 354 350 345 340 330 319 313 311 309 300 287 277 272 268 265 263 262 261 260 259 257 254 250 244 240 237 233 228 224 223 222 223 223 224 225 225 226 227 226 227 228 227 226 227 227 227 226 226 226 225 225 225 225
302 301 299 301 303 301 299 298 312 325 323 328 336 339 344 346 348 353 355 354 353 349 344 345 347 347 350 354 354 354 356 358 356 353 351 349 346 341 334 324 316 311 304 294 286 282 277 273 269 266 264 262 261 260 256 251 246 241 238 234 229 225 222 222 222 223 223 225 226 226 226 226 227 227 227 227 227 226 226 226 226 226 226 225 225 225
301 299 301 309 308 303 302 306 317 325 320 319 329 336 340 343 345 348 351 352 351 349 345 346 348 351 353 354 353 354 357 0 1 357 351 347 345 344 340 332 323 316 308 301 293 287 283 278 274 270 267 264 263 262 258 252 246 242 238 235 230 225 223 222 222 222 223 223 224 225 225 226 226 226 226 226 225 225 225 225 225 226 227 227 227 227
300 300 307 318 311 301 305 316 317 320 321 319 327 334 337 341 342 342 344 349 350 348 347 348 351 352 353 352 353 355 357 0 4 2 355 347 343 342 340 332 326 319 311 306 299 292 287 281 277 272 268 265 264 263 260 253 247 242 238 236 231 226 224 223 222 221 222 222 222 223 224 224 224 224 224 224 223 223 225 226 226 226 227 228 228 228
299 302 307 313 307 300 308 314 309 312 320 318 321 327 331 335 336 335 338 343 345 346 348 350 350 349 349 351 353 356 357 359 2 3 1 354 347 344 341 333 325 319 314 309 303 297 291 285 278 271 266 264 263 263 261 256 249 242 237 235 231 226 223 223 222 221 221 222 221 222 223 222 222 223 223 223 224 225 226 226 226 226 227 228 229 228
307 305 303 303 301 301 309 315 309 304 306 306 310 319 325 328 329 331 332 334 337 343 346 345 344 344 347 351 352 353 354 355 355 357 359 358 353 348 346 339 328 320 315 310 305 301 295 290 284 273 265 262 261 261 259 256 250 243 236 233 230 226 222 222 223 222 221 222 221 221 221 221 221 222 222 223 224 225 226 226 227 227 228 228 228 228
314 310 306 307 305 302 311 323 319 300 293 298 306 312 318 320 322 324 324 326 331 337 340 342 343 344 346 348 350 350 349 348 349 352 355 356 354 352 351 346 336 324 315 308 305 304 300 296 290 280 269 262 259 258 256 255 252 244 235 230 228 225 222 222 223 223 222 222 222 221 222 222 222 222 222 222 223 224 225 226 227 228 229 229 229 229
316 313 310 311 309 307 314 321 310 297 295 304 312 317 322 324 324 324 323 325 330 334 338 340 341 342 343 344 347 348 347 346 348 351 354 354 353 354 355 352 345 334 322 310 305 304 303 299 293 285 276 266 258 254 253 254 252 244 235 229 226 224 222 222 222 223 224 223 223 222 222 223 222 222 222 222 223 224 225 227 228 229 229 229 230 230
315 316 313 314 310 309 311 307 305 308 308 310 316 322 323 322 322 323 322 323 328 331 335 338 338 340 341 342 344 346 346 347 351 354 355 355 354 354 354 354 351 345 333 319 311 308 304 299 294 287 282 274 260 251 251 251 249 243 235 229 226 224 223 222 222 223 225 225 224 223 223 223 223 223 223 223 223 224 226 228 230 230 229 229 229 230
318 312 309 314 313 314 316 313 315 320 313 306 310 318 322 320 318 317 318 321 325 329 334 337 337 338 339 340 342 344 346 350 354 356 355 354 354 354 354 353 354 352 344 331 321 316 307 300 297 289 284 280 266 254 250 248 246 242 236 231 227 225 223 223 224 225 225 226 225 224 224 224 224 224 224 223 224 226 228 230 231 230 229 229 230 231
328 319 314 314 313 315 317 313 311 311 308 305 306 315 324 325 322 322 321 321 324 329 334 336 336 335 337 338 340 344 347 351 353 353 353 352 353 355 354 354 356 357 353 343 333 326 316 305 303 297 289 286 277 264 255 249 245 241 237 233 229 226 225 225 226 227 227 227 226 225 224 225 225 225 225 225 225 227 228 229 230 231 230 231 232 233
327 321 316 312 309 310 313 311 308 307 308 308 309 318 327 330 332 336 329 323 327 331 333 334 334 333 334 336 339 344 347 347 347 347 349 352 354 355 355 355 356 358 358 353 345 337 328 314 307 305 301 298 291 278 267 257 247 241 239 235 230 228 228 228 229 229 228 228 228 227 226 226 226 226 227 227 228 228 228 228 229 230 231 231 233 234
320 317 314 311 308 308 309 311 312 311 307 308 314 322 330 336 340 339 329 324 329 331 331 332 333 332 333 335 338 340 341 341 342 344 348 353 356 356 356 357 357 359 1 359 354 348 340 328 315 307 304 303 299 291 280 268 255 246 242 239 234 231 231 231 231 231 230 230 229 229 228 228 228 228 228 229 229 229 229 229 229 230 231 232 233 234
316 315 313 311 310 310 307 308 314 314 308 313 322 327 334 339 335 329 326 328 330 330 331 332 333 333 334 335 336 337 337 338 342 346 350 354 356 357 358 359 359 1 3 4 2 359 354 343 330 316 304 302 303 298 288 277 266 255 247 243 240 236 234 232 232 232 231 231 230 230 230 230 230 230 230 230 230 231 231 231 231 231 232 233 234 235
312 314 312 309 309 313 311 309 314 314 308 315 326 329 333 334 329 327 330 332 332 332 333 334 334 335 336 336 336 337 338 340 344 348 351 353 355 357 0 1 1 3 5 7 7 7 4 358 349 334 314 304 302 300 294 283 274 265 255 248 245 242 238 235 234 234 233 232 231 232 232 232 232 232 232 232 231 231 231 231 232 233 234 235 235 236
310 313 313 311 311 314 311 307 308 308 306 313 322 323 324 327 328 331 333 334 334 336 336 335 336 338 339 338 337 338 340 342 345 348 350 352 355 357 1 3 3 4 7 10 10 11 11 8 2 351 332 315 303 297 294 289 280 273 265 257 251 247 243 239 237 236 235 234 234 233 234 234 234 233 233 233 233 232 231 232 233 234 235 236 236 237
306 307 309 309 308 308 305 304 306 308 311 315 318 318 321 326 330 332 333 333 335 337 339 339 338 338 340 340 339 339 341 344 345 347 349 351 354 357 359 2 4 5 7 11 12 12 13 12 9 3 351 337 322 306 294 290 286 280 273 266 258 252 249 245 242 240 238 237 236 236 236 236 236 236 235 234 234 233 232 232 233 234 235 236 237 238
306 309 312 311 310 310 308 305 306 309 313 317 317 317 320 325 329 332 333 334 334 337 340 340 339 339 340 341 341 340 341 343 344 346 347 350 354 357 358 1 4 6 7 10 12 13 12 12 12 10 5 356 346 333 314 299 291 285 278 272 264 258 253 250 247 245 243 241 240 238 238 237 237 237 237 236 235 235 234 233 233 234 236 237 238 238
308 310 310 308 310 313 312 309 308 309 311 314 316 318 319 322 326 330 332 332 333 335 338 339 339 340 341 342 343 342 342 342 343 344 345 348 352 356 357 359 2 5 7 8 10 12 11 10 10 11 10 7 1 353 340 323 306 293 283 276 270 265 259 255 252 249 247 245 243 241 240 238 238 238 238 237 237 236 236 235 234 235 236 237 238 239
310 312 309 305 306 309 308 307 309 310 309 310 314 316 318 320 323 327 330 331 332 334 335 337 339 341 342 344 344 343 342 343 343 343 344 346 349 353 356 358 359 2 5 6 7 8 10 10 9 9 11 11 9 4 357 346 331 314 298 285 277 271 266 261 257 254 251 248 246 244 242 240 238 238 237 237 237 236 236 236 236 236 237 237 238 238
303 306 308 306 307 310 309 310 314 316 314 313 312 313 315 319 322 325 328 330 331 333 334 335 336 339 341 343 343 344 343 343 342 342 343 345 346 350 354 357 357 359 1 3 4 5 6 7 7 7 6 5 4 4 3 359 351 339 323 305 290 280 273 269 265 261 257 253 248 245 243 241 239 238 237 237 237 236 236 237 237 238 238 238 238 238
299 299 303 306 306 308 309 311 315 317 315 312 311 313 316 320 323 325 327 328 329 331 333 334 334 336 338 340 342 343 343 342 341 341 342 344 345 346 350 354 356 356 357 358 360 0 1 2 3 3 3 2 360 359 0 0 359 354 346 333 316 295 279 274 272 269 264 259 254 250 246 242 239 238 237 236 236 236 236 237 238 239 239 239 238 238
292 292 296 299 300 302 304 306 309 312 311 310 311 314 318 321 324 325 324 325 327 329 331 332 333 334 336 338 340 340 340 340 340 340 340 342 343 343 346 350 353 353 354 354 355 356 356 357 358 359 360 360 359 358 357 357 358 358 357 351 342 324 297 278 272 272 270 266 261 256 250 245 241 238 237 236 235 235 236 237 238 238 238 238 237 237